カタログに戻る

STARLINK-30267

運用中通信VLEO
NORAD 57663·PAYLOAD·🇺🇸 United States

打ち上げ Aug 22, 2023 から Vandenberg Space Force Base

Loading…

次のパス (今後24時間)

TLE

最新Source: CelesTrak SupGP

元期: Sep 15, 2026, 01:30 UTC

1 57663C 23124A   26258.06298611 -.00024723  00000+0 -73057-3 0  2587
2 57663  53.1591  45.2481 0000979  83.1301 109.9728 15.34397278    14

AllMySatでSTARLINK-30267をリアルタイム追跡

Download on the App Store